#timestamp,LO_Frequency,Hit,StdDev 
1600752635.0,286047003.5,P
1600752635.9,286047003.5,P
1600752655.8,286047003.5,P
1600752675.6,286047003.2,Y
1600752695.4,286047004.2,P
1600752715.3,286047001.8,P
1600752735.1,286047001.3,N
1600752755.9,286047004.4,Y
1600752775.7,286047000.7,P
1600752795.5,286047001.2,N
1600752815.4,286047002.7,P
1600752835.2,286046999.7,N
1600752855.1,286047000.7,N
1600752856.0,286047000.7,N
1600752875.8,286047001.2,N
1600752895.6,286046999.0,N
1600752915.5,286046996.9,N
1600752935.3,286046999.5,N
1600752955.1,286046999.0,N
1600752975.9,286046999.2,N
1600752995.7,286046997.7,N
1600753015.6,286046996.7,N
1600753035.4,286046997.1,N
1600753055.2,286046997.7,N
1600753075.1,286046996.8,N
1600753076.0,286046996.8,N
1600753095.8,286046997.0,N
1600753115.7,286046997.8,N
1600753135.5,286046996.7,N
1600753155.3,286046997.0,N
1600753175.2,286046997.3,N
1600753195.9,286046995.2,N
1600753215.7,286046995.0,N
1600753235.6,286046993.7,Y
1600753255.4,286046994.9,P
1600753275.3,286046997.5,N
1600753295.1,286046997.4,N
1600753296.0,286046997.4,N
1600753315.8,286046997.3,N
1600753335.7,286046996.5,Y
1600753355.5,286047002.3,P
1600753375.4,286046999.7,N
1600753395.2,286047002.4,N
1600753415.0,286046999.8,N
1600753415.9,286046999.8,N
1600753435.8,286047000.1,N
1600753455.6,286046999.9,N
1600753475.4,286047000.1,N
1600753495.3,286047002.8,N
1600753515.1,286047001.9,N
1600753535.9,286047002.7,N
1600753555.7,286047001.9,N
1600753575.5,286047004.0,N
1600753595.4,286047006.0,Y
1600753615.2,286047004.3,P
1600753635.1,286047002.9,N
1600753636.0,286047002.9,N
1600753655.8,286047004.3,Y
1600753675.6,286047002.1,P
1600753695.5,286047000.4,N
1600753715.3,286047000.5,N
1600753735.2,286046996.8,Y
1600753755.9,286046994.9,P
1600753775.7,286046995.3,N
1600753795.6,286046995.9,N
1600753815.4,286046996.0,N
1600753835.3,286046995.2,N
1600753855.1,286046995.2,N
1600753856.0,286046995.2,N
1600753875.8,286046995.7,N
1600753895.7,286046991.8,Y
1600753915.5,286046998.0,P
1600753935.4,286046996.8,P
1600753955.2,286046997.2,P
1600753975.0,286046997.5,Y
1600753975.9,286046997.5,P
1600753995.8,286047000.9,P
1600754015.6,286047000.3,N
1600754035.4,286047000.0,N
1600754055.3,286047002.6,N
1600754075.1,286047001.8,N
1600754095.9,286047000.0,N
1600754115.7,286047002.3,N
1600754135.5,286047002.3,N
1600754155.4,286047000.5,N
1600754175.2,286047000.1,N
1600754195.1,286047000.7,N
1600754196.0,286047000.7,N
1600754215.8,286047000.7,N
1600754235.6,286047000.7,N
1600754255.5,286047000.3,N
1600754275.3,286047000.9,N
1600754295.1,286046999.4,N
1600754315.9,286046998.1,N
1600754335.7,286046997.6,N
1600754355.6,286046995.3,Y
1600754375.4,286046997.5,P
1600754395.2,286046999.6,N
